Flag Weather past 2 weeks in Lexington, Virginia, U.S.A.

Now
38 °F

Fog.


Feels Like: 35 °F
Forecast: 30 / 42 °F
Wind: 3 mph from North

Location: Lynchburg Regional Airport

Current Time: Nov 27, 2014 at 9:40:14 AM

Latest Report: Nov 27, 2014 at 9:01 AM


Visibility: 5 mi

Pressure: 30.04 "Hg

Humidity: 100%

Dew point: 38 °F

Location of LexingtonLocation

Historic Weather in Lexington — Graph

°F

Lexington temperature yesterday

Maximum temperature yesterday: 44 °F (at 12:54 AM)
Minimum temperature yesterday: 33 °F (at 11:54 PM)
Average temperature yesterday: 39 °F

Past Weeks' High & Low Weather Summary

 TemperatureHumidityPressure
High70 °F (Nov 24, 1:54 PM)100% (Nov 17, 5:54 AM)30.56 "Hg (Nov 17, 5:54 AM)
Low15 °F (Nov 22, 5:54 AM)22% (Nov 21, 2:54 PM)29.61 "Hg (Nov 17, 3:04 PM)
Average39 °F62%30.12 "Hg
* Reported Nov 12 7:54 AM — Nov 27 7:54 AM, Lexington, Weather by CustomWeather, © 2014

Note: Actual official high and low records may vary slightly from our data, if they occured in-between our weather recording intervals... More about our weather records

Advertising

Lexington weather history for previous 24 hours

 ConditionsComfort  
Time TempWeatherWind HumidityBarometerVisibility
7:54 AM
Nov 27
37 °FFog.N/A100%30.03 "Hg5 mi
6:54 AM36 °FFog.No wind100%30.03 "Hg5 mi
5:54 AM35 °FPartly cloudy.No wind100%30.01 "HgN/A
4:54 AM35 °FOvercast.No wind100%30.01 "HgN/A
3:54 AM35 °FMostly cloudy.3 mph100%30.02 "HgN/A
2:54 AM35 °FOvercast.No wind100%30.03 "HgN/A
1:54 AM35 °FOvercast.3 mph100%30.03 "HgN/A
12:54 AM34 °FOvercast.3 mph100%30.03 "HgN/A
11:54 PM
Nov 26
33 °FClear.No wind100%30.02 "HgN/A
10:54 PM36 °FPassing clouds.3 mph100%30.03 "HgN/A
9:54 PM37 °FPassing clouds.5 mph96%30.03 "Hg10 mi
8:54 PM37 °FPassing clouds.5 mph100%30.03 "Hg10 mi
7:54 PM38 °FOvercast.3 mph100%30.02 "HgN/A
6:54 PM38 °FOvercast.3 mph100%30.01 "HgN/A
5:54 PM38 °FOvercast.3 mph100%30.01 "HgN/A
4:54 PM39 °FMore clouds than sun.No wind100%29.99 "HgN/A
4:01 PM39 °FMostly cloudy.No wind96%29.99 "HgN/A
3:01 PM38 °FLight rain. Mostly cloudy.3 mph97%29.96 "HgN/A
2:54 PM38 °FLight rain. Mostly cloudy.3 mph97%29.97 "Hg7 mi
1:54 PM37 °FLight rain. Mostly cloudy.3 mph96%29.98 "Hg7 mi
12:54 PM35 °FLight rain. Fog.5 mph100%29.98 "Hg5 mi
11:54 AM35 °FLight rain. Low clouds.5 mph100%29.98 "Hg7 mi
10:54 AM37 °FLight rain. Low clouds.6 mph100%30.02 "Hg7 mi
9:54 AM39 °FLight rain. Mostly cloudy.12 mph96%30.03 "Hg7 mi
Weather by CustomWeather, © 2014

See weather overviewHow to use our weather pages